Back to catalog

SHIYAN 28B-02

AliveScienceLEO
NORAD 65226·PAYLOAD·🇨🇳 China
This satellite name has not been confirmed by official sources yet.

Launched Aug 17, 2025 from Xichang Satellite Launch Center

Loading…

Next Passes (next 24 hours)

TLE

FreshSource: Space-Track

Epoch: Sep 14, 2026, 15:17 UTC

1 65226U 25177A   26257.63732837  .00000563  00000-0  50591-4 0  9992
2 65226  10.9994  70.7658 0003552 352.0771   7.9401 14.29420793 56359

Track SHIYAN 28B-02 in real time with AllMySat

Download on the App Store